Change the Weather History Date:

Tuesday, January 22, 2013

  Actual Average (KGYR) Record (KGYR)
Temperature  
Mean Temperature 59 °F -  
Max Temperature 77 °F 66 °F 78 °F (2013)
Min Temperature 41 °F 42 °F 28 °F (2007)
Degree Days  
Heating Degree Days 6    
Growing Degree Days 9 (Base 50)    
Moisture  
Dew Point 16 °F    
Average Humidity 20    
Maximum Humidity 33    
Minimum Humidity 9    
Precipitation  
Precipitation 0.00 in - - ()
Sea Level Pressure  
Sea Level Pressure 30.11 in    
Wind  
Wind Speed 6 mph (North)    
Max Wind Speed 10 mph    
Max Gust Speed -    
Visibility 9 miles    
Events      
Averages and records for this station are not official NWS values.
T = Trace of Precipitation, MM = Missing Value Source: NWS Daily Summary

Daily Weather History Graph

Daily Weather History Graph

Search for Another Location

Airport or City:

Trip Planner

Search our weather history database for the weather conditions in past years. The results will help you decide how hot, cold, wet, or windy it might be!

Date:

Astronomy

Jan. 22, 2013 Rise Set
Actual Time 7:32 AM MST 5:52 PM MST
Civil Twilight 7:05 AM MST 6:19 PM MST
Nautical Twilight 6:35 AM MST 6:49 PM MST
Astronomical Twilight 6:05 AM MST 7:19 PM MST
Moon 2:21 PM MST (1/22) 3:55 AM MST (1/22)
Length of Visible Light 11h 13m
Length of Day
10h 20m
Waxing Gibbous, 83% of the Moon is Illuminated
Jan 22
Waxing Gibbous
Jan 26
Full
Feb 3
Last Quarter
Feb 10
New
Feb 17
First Quarter

Hourly Weather History & Observations

Time (MST) Temp. Windchill Dew Point Humidity Pressure Visibility Wind Dir Wind Speed Gust Speed Precip Events Conditions
12:15 AM 50.0 °F - 12.2 °F 22% 30.09 in 10.0 mi NNW 10.4 mph - N/A   Clear
12:55 AM 50.0 °F - 12.2 °F 22% 30.09 in 9.0 mi NNW 6.9 mph - N/A   Clear
1:15 AM 48.2 °F - 14.0 °F 25% 30.09 in 9.0 mi North 6.9 mph - N/A   Clear
1:35 AM 50.0 °F - 12.2 °F 22% 30.10 in 10.0 mi NNW 8.1 mph - N/A   Clear
1:55 AM 53.6 °F - 12.2 °F 19% 30.10 in 10.0 mi NNW 6.9 mph - N/A   Clear
2:15 AM 51.8 °F - 12.2 °F 21% 30.11 in 10.0 mi North 6.9 mph - N/A   Clear
2:35 AM 50.0 °F - 10.4 °F 20% 30.11 in 10.0 mi North 9.2 mph - N/A   Clear
2:55 AM 51.8 °F - 12.2 °F 21% 30.11 in 10.0 mi North 10.4 mph - N/A   Clear
3:15 AM 50.0 °F - 12.2 °F 22% 30.11 in 10.0 mi North 9.2 mph - N/A   Clear
3:35 AM 50.0 °F - 12.2 °F 22% 30.11 in 10.0 mi NNW 9.2 mph - N/A   Clear
3:55 AM 48.2 °F - 12.2 °F 24% 30.11 in 10.0 mi NNW 8.1 mph - N/A   Clear
4:15 AM 48.2 °F - 12.2 °F 24% 30.12 in 10.0 mi NNW 5.8 mph - N/A   Clear
4:35 AM 48.2 °F - 12.2 °F 24% 30.11 in 10.0 mi NNW 8.1 mph - N/A   Clear
4:55 AM 50.0 °F - 10.4 °F 20% 30.12 in 10.0 mi North 9.2 mph - N/A   Clear
5:15 AM 48.2 °F - 12.2 °F 24% 30.12 in 10.0 mi North 9.2 mph - N/A   Clear
5:55 AM 44.6 °F 40.7 °F 12.2 °F 27% 30.12 in 10.0 mi NNW 6.9 mph - N/A   Clear
6:15 AM 46.4 °F 42.9 °F 12.2 °F 25% 30.12 in 9.0 mi NW 6.9 mph - N/A   Clear
6:35 AM 44.6 °F 43.1 °F 12.2 °F 27% 30.13 in 10.0 mi NNW 3.5 mph - N/A   Clear
6:55 AM 44.6 °F 40.7 °F 12.2 °F 27% 30.13 in 9.0 mi North 6.9 mph - N/A   Clear
7:15 AM 41.0 °F 35.8 °F 14.0 °F 33% 30.13 in 8.0 mi NNW 8.1 mph - N/A   Clear
7:35 AM 41.0 °F 36.4 °F 14.0 °F 33% 30.13 in 3.0 mi NNW 6.9 mph - N/A   Clear
7:55 AM 42.8 °F - 14.0 °F 31% 30.14 in 4.0 mi Calm Calm - N/A   Clear
8:15 AM 44.6 °F 43.1 °F 15.8 °F 31% 30.14 in 9.0 mi West 3.5 mph - N/A   Clear
8:35 AM 48.2 °F - 17.6 °F 30% 30.15 in 9.0 mi Calm Calm - N/A   Clear
8:55 AM 48.2 °F - 14.0 °F 25% 30.16 in 10.0 mi Calm Calm - N/A   Clear
9:15 AM 51.8 °F - 14.0 °F 22% 30.17 in 10.0 mi NW 5.8 mph - N/A   Clear
9:35 AM 55.4 °F - 14.0 °F 20% 30.17 in 7.0 mi NNW 5.8 mph - N/A   Clear
9:55 AM 59.0 °F - 14.0 °F 17% 30.17 in 8.0 mi NNW 5.8 mph - N/A   Clear
10:15 AM 62.6 °F - 12.2 °F 14% 30.18 in 10.0 mi North 5.8 mph - N/A   Clear
10:35 AM 64.4 °F - 12.2 °F 13% 30.18 in 10.0 mi North 5.8 mph - N/A   Clear
10:55 AM 64.4 °F - 12.2 °F 13% 30.17 in 10.0 mi Calm Calm - N/A   Clear
11:15 AM 66.2 °F - 12.2 °F 12% 30.17 in 10.0 mi Calm Calm - N/A   Clear
11:35 AM 68.0 °F - 12.2 °F 12% 30.16 in 10.0 mi Calm Calm - N/A   Clear
11:55 AM 68.0 °F - 12.2 °F 12% 30.15 in 10.0 mi Calm Calm - N/A   Clear
12:15 PM 71.6 °F - 10.4 °F 9% 30.14 in 10.0 mi Calm Calm - N/A   Clear
12:35 PM 71.6 °F - 10.4 °F 9% 30.13 in 10.0 mi ESE 3.5 mph - N/A   Clear
12:55 PM 73.4 °F - 14.0 °F 10% 30.12 in 10.0 mi East 8.1 mph - N/A   Clear
1:15 PM 73.4 °F - 15.8 °F 11% 30.11 in 10.0 mi ESE 6.9 mph - N/A   Clear
1:35 PM 73.4 °F - 14.0 °F 10% 30.10 in 10.0 mi East 3.5 mph - N/A   Clear
1:55 PM 75.2 °F - 14.0 °F 10% 30.09 in 10.0 mi Calm Calm - N/A   Clear
2:15 PM 75.2 °F - 12.2 °F 9% 30.09 in 10.0 mi NNE 4.6 mph - N/A   Clear
2:55 PM 75.2 °F - 15.8 °F 11% 30.08 in 10.0 mi ESE 3.5 mph - N/A   Clear
3:15 PM 75.2 °F - 15.8 °F 11% 30.08 in 10.0 mi ESE 3.5 mph - N/A   Clear
3:35 PM 77.0 °F - 17.6 °F 11% 30.08 in 10.0 mi ESE 4.6 mph - N/A   Clear
3:55 PM 77.0 °F - 19.4 °F 12% 30.07 in 10.0 mi SE 4.6 mph - N/A   Clear
4:15 PM 77.0 °F - 19.4 °F 12% 30.07 in 10.0 mi ESE 4.6 mph - N/A   Clear
4:35 PM 77.0 °F - 21.2 °F 12% 30.07 in 10.0 mi ESE 3.5 mph - N/A   Clear
4:55 PM 75.2 °F - 23.0 °F 14% 30.06 in 10.0 mi ESE 4.6 mph - N/A   Clear
5:15 PM 75.2 °F - 26.6 °F 17% 30.07 in 9.0 mi SE 3.5 mph - N/A   Clear
5:35 PM 71.6 °F - 28.4 °F 20% 30.07 in 6.0 mi SSE 4.6 mph - N/A   Clear
5:55 PM 68.0 °F - 32.0 °F 26% 30.07 in 3.0 mi SSE 3.5 mph - N/A   Clear
6:15 PM 68.0 °F - 28.4 °F 23% 30.08 in 7.0 mi SSE 4.6 mph - N/A   Clear
6:35 PM 68.0 °F - 26.6 °F 21% 30.08 in 10.0 mi Calm Calm - N/A   Clear
6:55 PM 64.4 °F - 24.8 °F 22% 30.09 in 9.0 mi North 4.6 mph - N/A   Clear
7:15 PM 60.8 °F - 23.0 °F 23% 30.08 in 9.0 mi North 6.9 mph - N/A   Clear
7:35 PM 59.0 °F - 23.0 °F 25% 30.08 in 8.0 mi North 8.1 mph - N/A   Clear
7:55 PM 59.0 °F - 23.0 °F 25% 30.08 in 10.0 mi NNE 6.9 mph - N/A   Clear
8:15 PM 59.0 °F - 19.4 °F 22% 30.08 in 10.0 mi North 5.8 mph - N/A   Clear
8:35 PM 57.2 °F - 19.4 °F 23% 30.09 in 7.0 mi NNW 5.8 mph - N/A   Clear
8:55 PM 57.2 °F - 17.6 °F 21% 30.09 in 10.0 mi NNW 8.1 mph - N/A   Clear
9:15 PM 55.4 °F - 17.6 °F 23% 30.09 in 10.0 mi North 10.4 mph - N/A   Clear
9:35 PM 55.4 °F - 17.6 °F 23% 30.10 in 10.0 mi North 9.2 mph - N/A   Clear
9:55 PM 55.4 °F - 17.6 °F 23% 30.10 in 10.0 mi NNW 6.9 mph - N/A   Clear
10:15 PM 55.4 °F - 17.6 °F 23% 30.11 in 10.0 mi North 5.8 mph - N/A   Clear
10:35 PM 53.6 °F - 17.6 °F 24% 30.11 in 10.0 mi North 6.9 mph - N/A   Clear
10:55 PM 53.6 °F - 17.6 °F 24% 30.11 in 10.0 mi North 8.1 mph - N/A   Clear
11:15 PM 51.8 °F - 19.4 °F 28% 30.12 in 10.0 mi North 4.6 mph - N/A   Clear
11:35 PM 50.0 °F - 19.4 °F 30% 30.13 in 10.0 mi NW 5.8 mph - N/A   Clear
11:55 PM 50.0 °F - 19.4 °F 30% 30.13 in 10.0 mi NW 6.9 mph - N/A   Clear